Waarnemingen

Advertentie
Mijn weer
Estepona, Spanje (8463): temperatuur & dauwpunt: 14.11.2018 12:00:00 - 20.11.2018 12:00:00 (CET)Estepona, Spanje (8463): windsnelheid & windstoten: 14.11.2018 12:00:00 - 20.11.2018 12:00:00 (CET)Estepona, Spanje (8463): windrichting: 14.11.2018 12:00:00 - 20.11.2018 12:00:00 (CET)Estepona, Spanje (8463): luchtdruk: 14.11.2018 12:00:00 - 20.11.2018 12:00:00 (CET)Estepona, Spanje (8463): zicht: 14.11.2018 12:00:00 - 20.11.2018 12:00:00 (CET)Estepona, Spanje (8463): Zonneschijnduur: 14.11.2018 12:00:00 - 20.11.2018 12:00:00 (CET)Estepona, Spanje (8463): neerslag: 14.11.2018 12:00:00 - 20.11.2018 12:00:00 (CET)
Datum & Tijd tt [°C] td [°C] ff [km/u] ff [kn] fx [km/u] fx [kn] dd ppp [hPa] vv [km] sd [min] rr [mm]
20.11.2018 12:00:00 16,7 10,0 27 14 49 27 W 1008,4 20 43 0,0
20.11.2018 11:00:00 - - - - - - - - - - -
20.11.2018 10:00:00 14,6 11,9 6 3 16 9 WZW 1006,8 8 0 0,0
20.11.2018 09:00:00 14,4 11,6 8 4 26 14 WZW 1006,2 18 0 0,0
20.11.2018 08:00:00 14,1 11,1 16 8 41 22 WZW 1005,9 20 0 0,0
20.11.2018 07:00:00 14,1 11,1 20 11 39 21 WZW 1005,7 20 0 -
20.11.2018 06:00:00 13,8 11,0 7 4 25 13 W 1006,1 9 0 0,0
20.11.2018 05:00:00 13,9 11,1 11 6 29 16 W 1006,3 10 0 0,0
20.11.2018 04:00:00 14,0 11,1 9 5 20 11 W 1006,6 20 0 0,0
20.11.2018 03:00:00 14,0 11,1 7 4 20 11 W 1006,8 20 0 0,0
20.11.2018 02:00:00 14,1 10,6 6 3 13 7 W 1007,3 6 0 0,0
20.11.2018 01:00:00 14,1 10,5 5 3 19 10 W 1007,6 20 0 -
20.11.2018 00:00:00 14,3 10,3 8 5 22 12 W 1008,0 20 0 0,0
19.11.2018 23:00:00 14,1 9,9 11 6 20 11 ZW 1008,1 20 0 0,0
19.11.2018 22:00:00 13,8 9,7 9 5 24 13 W 1007,6 20 0 0,0
19.11.2018 21:00:00 14,4 10,0 9 5 20 11 WZW 1007,3 20 0 0,0
19.11.2018 20:00:00 14,1 9,2 7 4 19 10 W 1007,0 20 0 0,0
19.11.2018 19:00:00 14,9 9,3 8 4 20 11 WZW 1006,5 20 0 -
19.11.2018 18:00:00 15,9 9,6 9 5 27 14 W 1005,9 20 24 0,0
19.11.2018 17:00:00 16,0 10,0 10 5 22 12 W 1005,4 20 5 0,0
19.11.2018 16:00:00 16,5 11,0 12 7 42 23 W 1005,0 20 0 0,0
19.11.2018 15:00:00 - - - - - - - - - - -
19.11.2018 14:00:00 17,6 11,2 14 8 35 19 WZW 1004,9 20 0 0,0
19.11.2018 13:00:00 16,7 11,0 16 9 38 21 WZW 1005,0 20 0 -
19.11.2018 12:00:00 16,5 12,0 16 9 34 18 WZW 1005,1 20 34 0,0
19.11.2018 11:00:00 14,9 12,2 18 10 34 19 WZW 1005,1 20 51 0,0
19.11.2018 10:00:00 13,9 11,6 10 5 27 14 WZW 1004,8 20 4 0,0
19.11.2018 09:00:00 13,4 11,2 14 8 23 13 WZW 1004,4 20 0 0,0
19.11.2018 08:00:00 - - - - - - - - - - -
19.11.2018 07:00:00 13,1 11,0 10 6 20 11 W 1003,2 20 0 -
19.11.2018 06:00:00 13,3 11,2 6 3 20 11 W 1003,0 20 0 0,0
19.11.2018 05:00:00 13,4 11,2 6 3 17 9 WZW 1002,9 6 0 0,0
19.11.2018 04:00:00 13,3 11,0 6 3 18 10 W 1002,9 12 0 0,0
19.11.2018 03:00:00 13,4 11,1 8 5 29 16 W 1003,0 20 0 0,0
19.11.2018 02:00:00 13,2 10,9 15 8 24 13 WZW 1003,1 20 0 0,0
19.11.2018 01:00:00 13,4 11,1 13 7 40 21 WZW 1003,5 6 0 -
19.11.2018 00:00:00 13,4 11,1 8 5 21 12 W 1003,4 18 0 0,0
18.11.2018 23:00:00 13,5 11,0 8 5 34 19 W 1003,6 8 0 0,0
18.11.2018 22:00:00 13,6 11,3 10 5 28 15 W 1003,4 17 0 0,0
18.11.2018 21:00:00 13,5 11,2 3 2 - - NO 1003,6 8 0 0,0
18.11.2018 20:00:00 13,3 11,0 7 4 16 9 ONO 1003,8 3,8 0 0,0
18.11.2018 19:00:00 13,7 11,2 4 2 15 8 NO 1003,5 6 0 -
18.11.2018 18:00:00 14,1 11,6 6 3 - - ONO 1003,6 3,6 0 0,0
18.11.2018 17:00:00 14,2 11,3 4 2 - - NO 1003,7 17 0 0,0
18.11.2018 16:00:00 15,3 12,4 7 4 - - WZW 1004,4 2,7 0 0,0
18.11.2018 15:00:00 15,0 11,8 5 3 24 13 O 1003,8 6 0 0,0
18.11.2018 14:00:00 15,3 11,9 13 7 26 14 O 1004,5 12 0 0,0
18.11.2018 13:00:00 15,4 12,5 16 8 28 15 O 1005,6 8 0 -
18.11.2018 12:00:00 15,4 12,8 12 6 - - ONO 1005,9 5 4 0,0
18.11.2018 11:00:00 16,1 13,8 8 4 - - ZW 1004,8 9 10 0,0
18.11.2018 10:00:00 16,0 13,5 29 16 54 29 O 1004,7 1,6 0 0,0
18.11.2018 09:00:00 16,4 13,7 27 15 49 26 O 1004,9 13 0 0,0
18.11.2018 08:00:00 16,3 13,6 20 11 44 24 O 1005,3 7 0 0,0
18.11.2018 07:00:00 16,8 13,8 21 11 37 20 O 1005,5 11 0 -
18.11.2018 06:00:00 16,6 13,6 22 12 34 19 O 1005,9 13 0 0,0
18.11.2018 05:00:00 16,5 13,6 24 13 40 22 O 1006,4 10 0 0,0
18.11.2018 04:00:00 16,5 13,8 26 14 40 21 O 1007,2 9 0 0,0
18.11.2018 03:00:00 16,6 13,9 22 12 39 21 ONO 1008,1 0,5 0 0,0
18.11.2018 02:00:00 16,7 13,9 24 13 40 22 ONO 1008,9 1,0 0 0,0
18.11.2018 01:00:00 16,6 13,9 19 10 37 20 ONO 1010,3 1,2 0 -
18.11.2018 00:00:00 16,5 13,8 18 10 36 20 ONO 1010,8 1,6 0 0,0
17.11.2018 23:00:00 16,6 13,7 16 9 44 24 ONO 1011,2 1,5 0 0,0
17.11.2018 22:00:00 16,8 13,6 13 7 32 18 ONO 1011,4 2,2 0 0,0
17.11.2018 21:00:00 16,6 13,4 15 8 31 17 ONO 1011,8 2,0 0 0,0
17.11.2018 20:00:00 16,8 13,2 11 6 31 17 ONO 1012,4 0,9 0 0,0
17.11.2018 19:00:00 17,0 13,6 18 10 39 21 ONO 1012,5 1,3 0 -
17.11.2018 18:00:00 16,9 13,7 18 10 30 16 ONO 1012,4 1,0 0 0,0
17.11.2018 17:00:00 17,0 13,9 16 9 29 16 ONO 1013,0 1,3 0 0,0
17.11.2018 16:00:00 17,1 14,1 18 10 30 16 ONO 1013,3 1,5 0 0,0
17.11.2018 15:00:00 17,3 14,4 18 10 37 20 ONO 1013,3 1,0 0 0,0
17.11.2018 14:00:00 16,9 13,9 17 9 32 17 ONO 1014,2 0,8 0 0,0
17.11.2018 13:00:00 17,1 13,7 16 9 33 18 ONO 1015,2 2,1 0 -
17.11.2018 12:00:00 17,3 13,7 18 10 33 18 ONO 1015,9 2,0 0 0,0
17.11.2018 11:00:00 17,5 14,2 10 6 26 14 ONO 1016,1 2,0 0 0,0
17.11.2018 10:00:00 17,2 14,1 10 6 25 14 NO 1016,3 1,7 0 0,0
17.11.2018 09:00:00 16,9 14,1 10 6 29 16 ONO 1015,8 2,0 0 0,0
17.11.2018 08:00:00 16,6 13,9 9 5 30 16 NO 1015,4 1,3 0 0,0
17.11.2018 07:00:00 16,7 13,9 6 3 18 10 NO 1015,2 1,8 0 -
17.11.2018 06:00:00 16,9 14,1 7 4 22 12 ONO 1015,6 6 0 0,0
17.11.2018 05:00:00 17,2 14,1 9 5 19 10 NO 1015,5 2,6 0 0,0
17.11.2018 04:00:00 17,1 14,1 8 5 21 12 NO 1016,1 14 0 0,0
17.11.2018 03:00:00 17,1 14,3 10 6 22 12 NO 1016,3 12 0 0,0
17.11.2018 02:00:00 17,1 14,3 9 5 23 12 NO 1016,6 12 0 0,0
17.11.2018 01:00:00 16,8 13,9 10 6 22 12 NO 1017,0 13 0 -
17.11.2018 00:00:00 17,1 13,9 10 5 27 14 ONO 1016,9 8 0 0,0
16.11.2018 23:00:00 17,7 13,1 8 5 22 12 NO 1017,2 12 0 0,0
16.11.2018 22:00:00 17,6 12,7 8 4 17 9 NO 1017,1 14 0 0,0
16.11.2018 21:00:00 17,5 12,8 8 4 19 10 NO 1017,0 13 0 0,0
16.11.2018 20:00:00 17,3 12,6 8 5 20 11 NO 1017,0 13 0 0,0
16.11.2018 19:00:00 17,3 12,8 7 4 23 12 ONO 1016,9 14 0 -
16.11.2018 18:00:00 17,9 13,0 16 8 25 14 ONO 1016,8 11 20 0,0
16.11.2018 17:00:00 18,8 13,5 15 8 26 14 ONO 1016,8 11 30 0,0
16.11.2018 16:00:00 18,9 13,3 16 9 29 15 ONO 1016,7 11 0 0,0
16.11.2018 15:00:00 19,0 13,4 16 9 29 16 ONO 1016,7 14 0 0,0
16.11.2018 14:00:00 18,6 13,3 15 8 29 15 ONO 1017,0 14 0 0,0
16.11.2018 13:00:00 18,5 13,2 17 9 29 16 ONO 1017,8 18 0 -
16.11.2018 12:00:00 18,3 13,2 17 9 30 16 ONO 1018,7 17 0 0,0
16.11.2018 11:00:00 18,0 13,1 16 9 28 15 ONO 1018,5 16 15 0,0
16.11.2018 10:00:00 17,1 12,8 9 5 21 11 NO 1018,7 18 0 0,0
16.11.2018 09:00:00 16,4 12,7 8 5 22 12 NO 1018,5 17 0 0,0
16.11.2018 08:00:00 15,9 12,4 10 6 21 11 NO 1018,3 17 0 0,0
16.11.2018 07:00:00 15,9 12,1 10 5 20 11 NO 1017,8 17 0 -
16.11.2018 06:00:00 16,0 12,0 9 5 22 12 NO 1017,9 17 0 0,0
16.11.2018 05:00:00 15,9 11,7 11 6 21 12 NO 1017,8 16 0 0,0
16.11.2018 04:00:00 16,0 12,2 9 5 19 11 NO 1018,2 16 0 0,0
16.11.2018 03:00:00 15,6 11,2 8 4 20 11 NO 1018,5 17 0 0,0
16.11.2018 02:00:00 14,9 10,5 6 4 18 10 NO 1018,5 19 0 0,0
16.11.2018 01:00:00 15,1 11,3 8 4 16 9 NO 1018,3 17 0 -
16.11.2018 00:00:00 15,4 11,8 8 5 27 15 NO 1018,7 19 0 0,0
15.11.2018 23:00:00 16,5 13,3 16 9 32 18 O 1018,8 11 0 0,0
15.11.2018 22:00:00 16,2 12,3 9 5 29 15 NO 1018,4 14 0 0,0
15.11.2018 21:00:00 - - - - - - - - - - -
15.11.2018 20:00:00 15,8 11,8 8 4 16 8 NO 1017,4 20 0 0,0
15.11.2018 19:00:00 15,9 11,2 2 1 3 2 O 1017,5 20 0 -
15.11.2018 18:00:00 17,5 12,4 3 2 6 3 ONO 1016,9 17 42 0,0
15.11.2018 17:00:00 19,0 13,0 4 2 9 5 ZW 1016,6 20 51 0,0
15.11.2018 16:00:00 - - - - - - - - - - -
15.11.2018 15:00:00 19,3 12,5 2 1 7 4 Z 1016,4 20 0 0,0
15.11.2018 14:00:00 19,5 13,3 3 2 7 4 ZZW 1016,6 20 0 0,0
15.11.2018 13:00:00 19,2 13,4 3 2 7 4 ZZW 1017,0 15 7 -
15.11.2018 12:00:00 18,5 12,7 5 3 11 6 OZO 1017,5 18 45 0,0
15.11.2018 11:00:00 17,8 13,4 5 3 9 5 O 1017,5 15 32 0,0
15.11.2018 10:00:00 16,2 13,0 1 1 9 5 ZZO 1017,2 14 0 0,0
15.11.2018 09:00:00 - - - - - - - - - - -
15.11.2018 08:00:00 14,7 11,4 2 1 14 7 ZW 1015,6 9 0 0,0
15.11.2018 07:00:00 15,1 12,0 5 3 20 11 NNO 1015,6 16 0 -
15.11.2018 06:00:00 15,5 12,1 14 8 21 11 O 1015,5 13 0 0,0
15.11.2018 05:00:00 16,1 12,2 6 3 27 15 NO 1015,2 16 0 0,0
15.11.2018 04:00:00 16,5 12,6 7 4 20 11 NO 1015,7 11 0 0,0
15.11.2018 03:00:00 16,8 12,7 6 3 15 8 NO 1015,3 10 0 0,0
15.11.2018 02:00:00 17,7 13,7 6 3 16 9 NO 1016,0 15 0 0,0
15.11.2018 01:00:00 17,8 13,6 6 4 15 8 NO 1016,6 10 0 -
15.11.2018 00:00:00 18,1 13,0 6 4 16 9 NO 1017,3 12 0 0,0
14.11.2018 23:00:00 17,9 12,3 8 5 21 11 NO 1017,4 18 0 0,0
14.11.2018 22:00:00 17,7 12,5 8 5 24 13 NO 1017,4 15 0 0,0
14.11.2018 21:00:00 18,1 12,5 9 5 26 14 ONO 1017,4 10 0 0,0
14.11.2018 20:00:00 18,2 12,6 13 7 32 17 ONO 1017,2 9 0 0,0
14.11.2018 19:00:00 - - - - - - - - - - -
14.11.2018 18:00:00 18,0 12,8 16 9 45 24 ONO 1016,8 8 31 0,0
14.11.2018 17:00:00 18,9 13,1 26 14 45 24 ONO 1016,6 9 8 0,0
14.11.2018 16:00:00 18,6 13,3 27 15 46 25 ONO 1016,9 9 0 0,0
14.11.2018 15:00:00 - - - - - - - - - - -
14.11.2018 14:00:00 19,0 13,4 29 16 45 24 ONO 1017,8 11 0 0,0
14.11.2018 13:00:00 19,2 13,4 28 15 45 25 ONO 1018,4 9 0 -
14.11.2018 12:00:00 18,8 13,3 27 15 40 22 O 1019,5 11 17 0,0

tt = temperatuur
td = dauwpunt
ff = windsnelheid
fx = windstoten
dd = windrichting
ppp = luchtdruk
vv = zicht
sd = Zonneschijnduur
rr = neerslag

Weerstations in de omgeving